Regional Weather Roundup
Issued by NWS Sioux Falls, SD

Home | Current Version | Previous Version | Text Only | Print | Product List | Glossary Off
Versions: 1 2 3 4 5 6 7 8 9 10 11 12 13 14 15 16 17 18 19 20 21 22 23 24 25 26 27 28 29 30 31 32 33 34 35 36 37 38 39 40 41 42 43 44 45 46 47 48 49 50

000
ASUS43 KFSD 290902
RWRFSD

WEATHER ROUNDUP FOR SE SOUTH DAKOTA/SW MINNESOTA/NW IOWA
NATIONAL WEATHER SERVICE SIOUX FALLS SD
400 AM CDT FRI APR 29 2016

NOTE: "FAIR" INDICATES FEW OR NO CLOUDS BELOW 12,000 FEET WITH NO
SIGNIFICANT WEATHER AND OR OBSTRUCTIONS TO VISIBILITY.


SDZ038>040-050-052>070-291000-
SOUTHEAST SOUTH DAKOTA

CITY           SKY/WX    TMP DP  RH WIND       PRES   REMARKS
BROOKINGS      MOCLDY    36  34  92 NE5       30.13F
CHAMBERLAIN    NOT AVBL
HURON          MOCLDY    36  34  92 CALM      30.15S
MADISON        CLOUDY    37  37 100 NE6       30.13S
MITCHELL       CLOUDY    40  37  89 NE5       30.14F
SIOUX FALLS    CLOUDY    40  37  89 NE3       30.13R
WINNER         CLOUDY    42  38  85 CALM      30.10F
YANKTON        CLOUDY    39  37  93 E5        30.12F
$$

MNZ071-072-080-081-089-090-097-098-291000-
SOUTHWEST MINNESOTA

CITY           SKY/WX    TMP DP  RH WIND       PRES   REMARKS
FAIRMONT       CLOUDY    39  30  70 N7        30.13R
JACKSON        CLOUDY    39  36  87 NE6       30.12S FOG
LUVERNE        CLOUDY    37  34  87 NE5       30.12F
MARSHALL       PTCLDY    35  35 100 N6        30.15S
MONTEVIDEO     CLOUDY    39  39 100 CALM      30.18R FOG
PIPESTONE      CLOUDY    37  36  93 NE3       30.12S
REDWOOD FALLS  PTCLDY    37  34  89 NW3       30.16R
TRACY          CLOUDY    35  35  99 CALM      30.15S FOG
WINDOM         CLOUDY    37  37 100 CALM      30.13S FOG
WORTHINGTON    CLOUDY    38  37  97 NE6       30.12F
$$

IAZ001>003-012>014-020>022-031-032-NEZ013-014-SDZ071-291000-
NORTHWEST IOWA

CITY           SKY/WX    TMP DP  RH WIND       PRES   REMARKS
DENISON        CLOUDY    43  41  93 CALM      30.10R
ESTHERVILLE    CLOUDY    39  37  92 N3        30.11S
SIOUX CITY     CLOUDY    43  38  82 CALM      30.13S
SPENCER        CLOUDY    40  37  89 NE5       30.12S
STORM LAKE     CLOUDY    41  39  93 N6        30.12R
$$

ABBREVIATIONS USED IN REMARKS
   TC - TEMPERATURE IN CELSIUS
  WCI - WIND CHILL INDEX
   HX - HEAT INDEX
  VSB - VISIBILITY





USA.gov is the U.S. government's official web portal to all federal, state and local government web resources and services.